Regional Weather Roundup
Issued by NWS Mt. Holly, NJ

Home | Current Version | Previous Version | Text Only | Print | Product List | Glossary On
Versions: 1 2 3 4 5 6 7 8 9 10 11 12 13 14 15 16 17 18 19 20 21 22 23 24 25 26 27
000
ASUS41 KPHI 201213
RWRPHI

REGIONAL WEATHER ROUNDUP
NATIONAL WEATHER SERVICE MOUNT HOLLY NJ
700 AM EST TUE FEB 20 2018

NOTE:  "FAIR" INDICATES FEW OR NO CLOUDS BELOW 12,000 FEET WITH NO
SIGNIFICANT WEATHER AND/OR OBSTRUCTIONS TO VISIBILITY.

 * = STATION DOES NOT REPORT PRECIPITATION (E.G. RAIN, SNOW, ETC.)
        OR FOG.

NJZ015>026-201300-
SOUTHERN NEW JERSEY

CITY           SKY/WX    TMP DP  RH WIND       PRES   REMARKS
POMONA         CLOUDY    59  59 100 SW15G23   30.36R FOG
6HR MIN TEMP:  52; 6HR MAX TEMP:  60;

WILDWOOD*      CLOUDY    56  55  97 SW12      30.39R FOG
MILLVILLE      CLOUDY    56  55  97 SW7       30.36R
WRIGHTSTOWN    CLOUDY    55  55 100 W13       30.31R
MOUNT HOLLY    CLOUDY    54  54 100 SW7       30.35R FOG
TRENTON        CLOUDY    52  51  97 SW7       30.34R FOG
6HR MIN TEMP:  47; 6HR MAX TEMP:  52;


$$
NJZ001>014-201300-
NORTHERN NEW JERSEY

CITY           SKY/WX    TMP DP  RH WIND       PRES   REMARKS
SUSSEX         FOG       41  41 100 SW6       30.31R VSB 1/2
ANDOVER*         N/A     41  41 100 VRB3      30.31R
MORRISTOWN     FOG       48  46  93 SW6       30.31R VSB 1
NEWARK         FOG       49  49 100 SW5       30.32R VSB 1/4
TETERBORO      FOG       48  48 100 SW6       30.31R VSB 1/2
CALDWELL       CLOUDY    46  46 100 SW5       30.33R FOG
SOMERVILLE     FOG       40  40 100 CALM      30.32R VSB 1/4
ALLAIRE*       CLOUDY    56  55  97 SW10G17   30.34  FOG
TOMS RIVER*    CLOUDY    57  56  96 SW15      30.34R

$$
PAZ043-044-047-054-055-060>062-066>071-201300-
EASTERN PENNSYLVANIA

CITY           SKY/WX    TMP DP  RH WIND       PRES   REMARKS
PHILADELPHIA   DRIZZLE   51  51 100 SW14      30.35R FOG
6HR MIN TEMP:  47; 6HR MAX TEMP:  51; 6HR PCP: TRACE;

NORTH PHILA    CLOUDY    54  52  93 SW9       30.36R FOG
BLUE BELL*     CLOUDY    50  50 100 SW5       30.36R
DOYLESTOWN     CLOUDY    49  49 100 SW6       30.33R FOG
QUAKERTOWN*    FOG       39  39 100 CALM      30.33R VSB 1/4
PERKASIE*      FOG       46  46 100 CALM      30.34R VSB<1/4
POTTSTOWN      FOG       47  47 100 CALM      30.35R VSB 3/4
LANCASTER      FOG       45  45 100 CALM      30.33R VSB<1/4
COATESVILLE    FOG       50 N/A N/A VRB3      30.35R VSB<1/4
READING        FOG       39  39 100 CALM      30.33R VSB 1/8
6HR MIN TEMP:  38; 6HR MAX TEMP:  39;

ALLENTOWN      FOG       38  36  92 CALM      30.33R VSB 1/4
6HR MIN TEMP:  37; 6HR MAX TEMP:  39;

MOUNT POCONO   FOG       43  43 100 W7        30.27R VSB 1/4
6HR MIN TEMP:  40; 6HR MAX TEMP:  46;

HAZLETON       FOG       43  43 100 CALM      30.31R VSB 1/2
LEHIGHTON      FOG       34  34 100 CALM      30.34R VSB 1/4
WILKES BARRE   CLOUDY    43  43 100 S5        30.28R FOG

$$
DEZALL-MDZ008-012-015-019-020-201300-
DELAWARE AND EASTERN MARYLAND

CITY           SKY/WX    TMP DP  RH WIND       PRES   REMARKS
WILMINGTON     FOG       52  52 100 SW9       30.35R VSB 3/4
6HR MIN TEMP:  45; 6HR MAX TEMP:  52; 6HR PCP: TRACE;

DOVER          FAIR      56  55  95 S14       30.35R
GEORGETOWN     CLOUDY    60  58  92 SW13G24   30.39R FOG
6HR MIN TEMP:  59; 6HR MAX TEMP:  61;

EASTON         CLOUDY    55  54  94 SW14G20   30.41R FOG
ABERDEEN       FOG       48  48 100 SW7       30.36R VSB 1/4
PATUXENT       CLOUDY    56  56 100 SW12      30.40  FOG
OCEAN CITY     CLOUDY    50  50 100 SW6       30.41R FOG
WALLOPS ISLAND FOG       53  53 100 S7        30.42R VSB 1/2
CAMBRIDGE        N/A     55  55 100 VRB6      30.40R FOG
SALISBURY      CLOUDY    59  58  96 SW9       30.40R FOG

$$
PAZ001-021-NYZ056-072-MDZ011-DCZ001-201300-
OTHER NEARBY LOCATIONS

CITY           SKY/WX    TMP DP  RH WIND       PRES   REMARKS
HARRISBURG     FOG       41  40  96 CALM      30.32R VSB<1/4
STATE COLLEGE  FOG       32  32 100 CALM      30.25S VSB 3/4
WILLIAMSPORT   FOG       41  41 100 E7        30.28R VSB 1/2
BINGHAMTON     MOCLDY    43  42  97 S7        30.20R
NEW YORK CITY  CLOUDY    50  50 100 W6        30.33  FOG
BALTIMORE      CLOUDY    52  52 100 SW7       30.35R FOG
WASHINGTON DC  CLOUDY    54  53  97 S14       30.37R

$$




USA.gov is the U.S. government's official web portal to all federal, state and local government web resources and services.